EHI
0 0 0 0 0 0 0 0 0 0 0 0 0 0 2 5 5 4 6 6 4 1 1 1 1 1 1 3 5 7 7 6 5 3 2 2 1 1 0 0 0 0 1 3
0 0 0 0 0 0 0 0 0 0 0 0 0 0 2 4 5 5 6 6 4 2 1 1 2 3 4 5 8 9 8 8 6 5 5 4 3 2 0 0 0 0 1 2
0 0 0 0 0 0 0 0 0 0 0 0 0 1 2 3 4 5 6 6 4 1 0 2 4 5 5 6 9 11 11 11 10 9 8 7 6 2 0 0 1 1 1 1
0 0 0 0 0 0 0 0 0 0 0 0 0 1 2 2 3 5 6 7 5 2 1 3 5 6 5 5 6 10 13 14 13 12 12 10 6 2 0 1 2 2 1 1
0 0 0 0 0 0 0 0 0 0 0 0 0 1 1 1 1 3 6 7 7 4 2 3 5 5 4 3 3 7 13 16 15 15 14 10 6 3 2 3 4 3 3 2
0 0 0 0 0 0 0 0 0 0 0 0 0 0 0 0 0 1 4 6 6 6 5 5 6 7 6 3 3 8 14 17 16 15 12 9 7 6 6 6 5 4 3 3
0 0 0 0 0 0 0 0 0 0 0 0 0 0 0 0 0 1 3 5 5 6 8 10 11 12 11 8 7 12 18 19 16 14 11 9 9 10 9 8 7 6 4 4
0 0 0 0 0 0 0 0 0 0 0 0 0 0 0 0 0 1 3 4 4 5 9 13 14 15 14 12 11 15 19 20 17 15 14 13 12 12 10 9 8 7 5 4
0 0 0 0 0 0 0 0 0 0 0 0 0 0 0 0 0 1 2 2 3 6 9 11 12 13 13 13 13 15 18 20 18 17 16 14 13 11 9 8 7 7 6 5
0 0 0 0 0 0 0 0 0 0 0 0 0 0 1 0 0 2 2 2 3 6 8 9 10 11 12 12 13 15 17 17 17 15 14 12 11 10 9 8 7 7 6 6
0 0 0 0 0 0 0 0 0 0 0 0 0 0 0 0 0 1 3 3 4 6 8 9 11 13 14 13 12 13 14 14 13 13 11 10 10 11 10 10 10 9 8 8
0 0 0 0 0 0 0 0 0 0 0 0 0 0 0 0 0 1 3 5 7 10 11 13 15 17 16 14 11 11 12 11 11 12 12 12 12 12 12 11 11 11 10 9
0 0 0 0 0 0 0 0 0 0 0 0 0 0 0 0 0 1 4 8 12 15 15 16 18 20 20 19 14 11 9 9 10 11 12 13 14 13 12 11 11 10 9 8
0 0 0 0 0 0 0 0 0 0 0 0 1 1 1 0 1 2 5 10 14 16 16 16 19 23 25 24 20 15 11 10 9 10 12 14 15 14 13 12 11 11 9 8
0 0 0 0 0 0 0 0 0 1 1 1 2 2 1 1 2 3 7 11 14 15 15 15 20 24 26 27 25 22 18 16 15 15 15 16 16 17 17 16 15 16 15 13
0 0 0 0 0 0 0 0 0 1 1 1 2 2 1 1 3 5 7 10 13 14 15 16 21 24 26 28 28 26 24 24 23 21 19 17 18 20 20 19 18 19 21 20
0 0 0 0 0 0 0 0 0 0 1 1 2 1 1 1 3 5 7 8 10 13 16 19 23 26 28 29 29 27 27 29 28 23 20 18 17 18 19 18 18 20 24 26
0 0 0 0 0 0 0 0 0 0 0 1 2 2 2 2 4 5 7 8 9 12 17 21 23 26 29 30 30 29 29 30 28 25 22 20 17 17 17 17 17 20 24 28
0 0 0 0 0 0 0 0 0 0 0 0 1 2 2 3 4 6 10 11 10 12 17 19 19 20 26 31 32 31 30 29 28 26 24 21 18 18 18 19 19 20 24 28
1 1 0 0 0 0 0 0 0 0 0 0 1 1 2 2 3 6 11 13 11 13 18 20 18 19 25 31 32 30 27 26 25 23 22 21 22 22 22 22 22 23 25 26
2 1 0 0 0 0 0 0 0 0 0 0 0 0 1 2 3 5 9 12 13 15 19 22 23 25 28 31 29 27 24 22 21 20 20 23 25 26 25 25 25 25 25 25
1 1 0 0 0 0 0 0 0 0 0 1 1 1 1 2 3 5 8 11 14 16 20 23 25 28 30 30 28 25 22 19 17 17 18 22 26 27 27 28 28 26 25 24
1 1 1 1 0 1 1 0 0 0 1 2 2 2 2 2 3 5 8 11 13 15 18 22 25 27 29 28 26 23 21 18 15 14 14 16 21 24 25 27 26 25 24 23
1 1 1 2 1 1 2 1 1 1 2 3 4 4 3 3 3 5 7 9 12 15 18 20 22 24 27 27 24 21 20 18 15 13 13 13 15 18 20 20 20 21 21 21
1 1 1 1 1 1 2 3 2 2 4 5 4 4 3 2 2 3 5 7 10 14 17 19 19 21 24 24 22 20 19 18 15 13 12 12 12 14 15 16 16 16 17 15
1 0 0 1 0 0 2 4 3 3 5 5 5 4 3 2 2 2 3 6 9 11 14 17 18 19 20 20 20 19 18 17 15 12 11 11 12 13 14 14 14 14 13 11
Wind_Speed
6 7 5 2 3 3 3 2 0 3 2 3 2 2 5 9 9 9 9 9 8 8 8 8 7 7 6 6 5 5 4 4 3 2 1 1 2 1 1 1 2 1 1 2
7 6 3 3 3 4 4 3 1 3 2 3 2 2 3 7 9 9 9 9 9 9 9 9 8 8 8 7 6 6 6 5 4 2 1 1 0 0 1 1 2 1 1 1
9 2 3 5 6 6 5 5 2 1 3 5 5 5 6 6 7 8 9 9 9 10 10 11 10 9 8 8 7 6 6 5 5 4 3 2 2 2 2 2 1 1 1 1
8 4 5 7 7 7 5 3 4 4 5 3 4 2 4 6 8 8 9 10 10 10 10 11 11 10 10 9 8 7 6 6 6 5 4 4 2 2 1 1 1 1 0 0
6 6 7 8 5 6 3 2 4 5 6 5 4 5 2 5 5 7 8 9 9 10 11 11 11 10 9 9 8 7 7 7 6 6 5 5 4 2 2 2 2 1 1 0
5 4 5 5 4 5 4 5 6 7 8 5 3 5 1 2 1 3 6 8 8 9 10 10 10 10 9 8 8 8 8 7 7 7 6 6 5 3 2 2 1 2 1 1
8 8 6 5 7 8 9 8 6 6 6 3 2 5 1 2 0 1 3 6 8 9 10 10 11 11 10 9 8 8 8 8 7 8 7 6 6 5 4 4 3 2 1 1
9 8 8 7 8 6 9 10 7 6 4 3 5 4 0 1 1 1 3 5 7 8 9 10 10 10 10 10 9 8 7 7 6 6 6 6 6 5 4 3 3 2 1 0
6 5 6 4 5 7 7 8 7 8 7 6 2 2 3 3 2 3 4 5 7 8 9 9 9 9 9 9 9 8 8 7 6 6 6 5 5 5 3 3 3 2 1 1
5 5 6 5 6 4 6 5 6 7 7 7 5 4 2 3 3 2 3 5 5 7 8 8 8 8 7 7 8 8 7 7 6 6 6 5 5 5 4 4 3 2 1 1
7 7 6 8 7 6 7 8 6 5 6 8 4 1 3 0 1 1 2 3 4 6 7 7 7 7 7 7 7 7 8 7 7 6 5 5 5 5 5 4 4 3 3 2
6 7 6 6 3 3 6 7 8 7 5 6 7 0 4 2 1 1 1 2 3 4 5 6 7 7 7 7 6 7 7 7 7 6 6 6 5 5 5 5 4 4 3 3
4 7 8 9 9 7 7 7 8 8 7 7 7 1 5 3 1 1 1 2 3 4 4 6 6 6 6 6 6 6 6 6 6 6 6 6 5 5 5 5 4 4 4 4
5 7 9 8 3 5 8 8 8 10 8 7 7 4 2 1 1 1 1 1 3 4 5 6 7 6 6 5 5 5 6 6 6 6 5 5 5 5 5 5 5 4 4 4
6 7 7 6 3 4 6 7 8 9 9 8 5 5 2 0 1 1 1 2 3 4 5 6 7 6 6 5 5 5 5 5 5 5 5 5 4 4 4 4 4 4 4 4
4 5 6 7 6 6 8 8 8 9 8 8 7 5 1 1 1 1 2 2 3 4 5 5 6 6 6 6 5 5 5 4 5 4 4 4 4 3 3 4 4 4 4 4
5 6 7 8 7 9 11 8 8 8 7 7 7 4 1 2 2 2 2 2 2 3 4 5 5 5 5 5 5 5 5 5 4 4 3 3 4 3 3 3 3 3 4 4
4 5 6 6 7 11 1 1 3 5 5 5 5 3 3 3 2 2 2 2 3 3 3 4 4 5 5 5 5 4 5 5 5 4 3 3 3 3 3 3 3 3 3 4
5 6 6 7 9 8 4 4 4 5 5 3 3 2 2 2 3 3 2 1 2 2 2 2 3 4 4 4 5 5 4 5 4 4 3 3 3 3 3 2 2 3 3 4
5 6 7 7 9 9 2 5 1 5 5 1 1 1 1 3 5 2 3 1 1 1 2 2 3 4 5 5 5 5 4 4 3 3 3 3 3 3 3 2 2 2 3 3
8 7 9 10 10 5 4 3 4 7 2 4 2 1 2 2 4 3 1 1 1 1 1 2 2 3 4 5 5 4 4 3 3 2 2 3 3 3 3 2 2 2 3 3
7 7 8 8 10 3 4 2 2 4 4 2 2 2 2 2 2 1 1 1 0 0 1 2 2 3 3 4 4 4 3 2 2 2 2 2 2 3 2 2 2 3 3 3
5 4 3 3 2 4 2 2 3 3 3 2 2 2 2 2 1 1 0 0 0 1 1 1 2 3 3 3 4 4 3 3 2 2 2 2 2 2 2 2 3 3 3 3
3 2 4 3 2 1 1 1 2 2 3 3 2 2 2 1 1 1 1 1 1 1 1 2 2 2 2 2 2 2 2 2 3 3 2 2 2 2 2 2 2 2 2 3
3 3 4 5 4 3 2 2 3 3 3 3 2 2 2 2 2 2 2 2 2 1 1 1 2 1 1 2 2 2 2 3 3 2 2 2 3 2 2 2 2 3 2 3
4 5 6 4 3 4 3 3 4 3 3 2 2 2 2 3 3 3 3 2 2 2 1 1 1 1 1 1 1 1 1 2 3 3 3 3 3 2 2 2 2 1 2 1
Wind_Direction
202 222 219 223 262 302 289 267 311 88 107 226 223 199 165 178 194 192 186 183 186 186 175 177 181 179 175 174 175 181 179 167 180 171 172 149 140 141 124 116 95 90 70 70
209 220 237 247 226 238 244 250 208 135 140 245 237 221 172 182 200 201 194 193 190 184 179 182 185 185 185 183 184 184 185 182 190 169 172 158 133 165 112 92 95 87 84 52
233 230 200 223 217 228 239 256 278 207 171 208 239 198 170 168 198 202 204 203 196 191 188 184 188 191 190 186 188 190 189 187 194 181 185 172 176 195 166 157 148 146 107 68
231 222 223 230 227 239 234 259 254 223 230 201 254 247 151 171 185 196 202 203 201 194 192 187 187 190 191 187 186 189 191 191 190 192 203 208 208 190 156 194 116 151 96 31
212 210 221 231 230 238 255 223 232 239 244 246 222 262 146 167 196 194 195 198 199 193 191 189 188 187 190 187 187 184 186 190 191 198 200 215 218 203 192 190 146 232 163 242
229 208 236 243 219 209 185 197 213 229 242 241 256 264 229 145 227 199 183 188 191 188 187 187 186 184 187 187 188 184 182 188 192 199 205 216 219 218 222 219 192 222 189 183
204 200 192 208 202 191 216 232 230 225 225 231 209 254 292 46 40 231 183 182 183 182 183 183 184 184 186 187 188 186 184 189 192 199 205 211 214 216 219 231 215 246 231 185
210 197 187 203 231 227 223 248 264 274 268 226 189 244 131 104 138 186 185 179 176 178 182 183 184 185 186 185 186 186 186 190 191 201 205 208 210 220 220 219 247 239 258 171
226 194 160 196 232 243 218 238 270 269 270 270 236 193 178 191 189 179 173 172 175 176 178 181 181 180 184 184 183 184 184 187 190 200 205 203 207 218 219 209 222 229 235 219
247 232 181 177 201 221 262 241 237 253 266 261 238 229 210 185 198 188 176 173 172 175 176 176 176 175 176 179 180 180 179 178 180 191 202 194 199 206 209 216 212 234 244 257
235 233 199 196 221 218 204 217 243 255 270 275 268 237 65 64 215 211 172 163 167 177 178 176 173 169 169 173 174 175 176 174 177 187 193 202 201 200 203 210 212 214 223 230
232 240 226 211 196 279 245 239 233 246 247 264 279 145 90 101 118 164 140 140 153 165 169 166 163 160 163 167 171 174 175 174 177 181 185 192 198 201 206 206 213 216 219 228
209 234 222 201 191 200 223 226 237 249 250 252 262 203 115 128 120 112 117 140 149 159 162 156 156 156 159 163 167 170 176 177 176 177 184 188 193 201 210 214 215 217 222 230
242 237 251 258 260 204 213 218 224 237 246 250 252 254 177 187 188 138 103 156 155 157 162 160 157 160 161 162 165 171 180 182 178 183 193 194 199 205 212 215 217 218 223 229
237 230 237 259 269 243 239 227 220 235 257 270 269 268 278 272 235 176 174 181 170 164 166 166 166 166 168 169 170 173 178 181 182 188 195 196 204 206 214 217 219 218 225 230
233 232 221 227 229 238 249 237 231 235 248 255 264 272 334 134 195 176 168 183 189 176 173 173 172 171 177 177 177 173 178 179 183 191 193 191 200 203 209 215 221 224 226 233
207 215 230 226 214 237 235 231 232 234 242 258 260 270 266 240 234 224 203 194 201 197 183 181 180 181 182 183 176 175 177 176 180 185 186 181 187 193 205 221 224 234 236 231
220 226 237 238 223 236 225 128 233 241 250 258 273 276 256 259 246 242 218 212 213 217 203 188 186 183 181 173 167 168 166 165 164 167 172 177 186 191 199 214 226 235 240 236
227 224 241 241 237 242 201 185 221 238 247 254 263 273 268 261 226 200 185 235 235 222 220 206 198 182 166 160 155 157 161 164 165 166 172 179 187 194 204 218 232 238 243 243
190 224 240 237 245 247 190 122 174 241 223 128 291 295 282 244 238 146 72 5 288 247 211 211 195 172 154 153 156 162 162 164 174 178 184 190 194 198 206 214 230 240 245 248
196 210 231 239 242 239 70 121 201 232 63 57 355 330 278 271 332 19 11 327 298 226 194 185 179 168 157 158 161 166 167 174 183 186 192 206 207 208 210 214 227 240 244 247
224 218 220 235 241 222 69 174 244 6 23 8 351 335 311 319 346 3 1 10 10 146 160 167 163 156 156 163 166 166 176 181 180 188 200 219 233 238 197 202 224 233 238 237
247 283 274 268 324 43 54 28 8 338 316 323 327 325 300 296 315 344 345 343 12 151 162 178 164 159 165 174 178 177 181 178 177 188 203 218 225 236 229 225 229 230 230 244
199 260 255 243 221 244 275 311 315 307 299 304 303 295 279 274 292 275 255 261 258 218 199 197 172 176 178 184 189 182 179 185 193 199 207 217 223 227 217 243 246 252 255 258
267 234 239 241 255 257 252 298 305 311 307 301 299 296 287 278 275 269 258 248 243 234 230 201 170 157 182 187 193 197 193 199 202 207 224 237 236 234 235 246 284 276 289 300
243 246 254 258 270 274 289 305 302 291 288 294 295 290 283 269 266 263 260 256 242 230 225 218 194 158 151 205 228 230 222 220 224 224 229 240 242 236 241 234 235 211 254 227